Location: Anton
(37.3520°N, 87.3947°W)
Time: 19:54:35
(UTC+00:00)

N. Korean satellite - Pass Details

Date: 30 November 2022
Orbit: 407 x 442 km, 97.3° (Epoch: 05 February)

Event Time Altitude Azimuth Distance (km) Brightness Sun altitude
Rises 10:43:35 0° 19° (NNE) 2,522 10.3 -23.5°
Reaches altitude 10° 10:45:44 10° 26° (NNE) 1,636 9.4 -23.1°
Maximum altitude 10:49:05 42° 99° (E) 680 7.7 -22.4°
Drops below altitude 10° 10:52:22 10° 171° (S) 1,602 9.4 -21.8°
Sets 10:54:27 0° 178° (S) 2,462 10.3 -21.4°
